Вернуться в каталог

COSMOS 2411

GLONASS

АктивенНавигацияMEO
NORAD 28509·PAYLOAD·🇷🇺 Russia

Запущен Dec 26, 2004 с Baikonur Cosmodrome

Loading…

Ближайшие Пролёты (ближайшие 24 часа)

TLE

УстаревающийSource: Space-Track

Эпоха: Aug 28, 2026, 13:00 UTC

1 28509U 04053B   26240.54225395  .00000015  00000-0  00000+0 0  9990
2 28509  64.2606  57.6418 0003314 234.0104 135.9254  2.13096827168660

Отслеживайте COSMOS 2411 в реальном времени с AllMySat

Download on the App Store